This is the latest recevied weather packets stored in our database for station/object W5ADC. If no packets are shown the sender has not sent any weather packets the latest 10 day(s).
| Time | Temp. | Humidity | Pressure | Rain* | Wind** | Luminosity | Snow |
|---|---|---|---|---|---|---|---|
| 1788555794 | 36.11° C | 45% | 1008.4 hPa | 0 mm | - | 567 W/m² | - |
| 1788555491 | 36.11° C | 46% | 1008.3 hPa | 0 mm | - | 602 W/m² | - |
| 1788555186 | 35.56° C | 45% | 1008.6 hPa | 0 mm | - | 618 W/m² | - |
| 1788554883 | 35° C | 48% | 1008.5 hPa | 0 mm | - | 171 W/m² | - |
| 1788554579 | 36.11° C | 46% | 1008.5 hPa | 0 mm | - | 158 W/m² | - |
| 1788554274 | 36.11° C | 46% | 1008.8 hPa | 0 mm | - | 649 W/m² | - |
| 1788553970 | 36.11° C | 46% | 1008.8 hPa | 0 mm | - | 687 W/m² | - |
| 1788553666 | 35.56° C | 47% | 1008.7 hPa | 0 mm | - | 722 W/m² | - |
| 1788553362 | 36.11° C | 47% | 1008.9 hPa | 0 mm | - | 704 W/m² | - |
| 1788553063 | 35.56° C | 47% | 1009 hPa | 0 mm | - | 700 W/m² | - |
| 1788552752 | 35.56° C | 47% | 1009 hPa | 0 mm | - | 157 W/m² | - |
| 1788552446 | 36.11° C | 46% | 1009 hPa | 0 mm | - | 176 W/m² | - |
| 1788552141 | 36.67° C | 46% | 1009.2 hPa | 0 mm | - | 686 W/m² | - |
| 1788551840 | 36.11° C | 46% | 1009.3 hPa | 0 mm | - | 701 W/m² | - |
| 1788551539 | 35.56° C | 46% | 1009.4 hPa | 0 mm | - | 716 W/m² | - |
| 1788551234 | 36.11° C | 46% | 1009.6 hPa | 0 mm | - | 342 W/m² | - |
| 1788550933 | 36.11° C | 46% | 1009.2 hPa | 0 mm | - | 740 W/m² | - |
| 1788550629 | 36.11° C | 47% | 1009.5 hPa | 0 mm | - | 710 W/m² | - |
| 1788550325 | 36.11° C | 46% | 1009.5 hPa | 0 mm | - | 710 W/m² | - |
| 1788550019 | 36.11° C | 46% | 1009.6 hPa | 0 mm | - | 704 W/m² | - |
| 1788549715 | 35.56° C | 47% | 1009.8 hPa | 0 mm | - | 719 W/m² | - |
| 1788549411 | 35.56° C | 47% | 1009.5 hPa | 0 mm | - | 726 W/m² | - |
| 1788549107 | 35.56° C | 46% | 1009.7 hPa | 0 mm | - | 737 W/m² | - |
| 1788548803 | 35.56° C | 46% | 1009.6 hPa | 0 mm | - | 735 W/m² | - |
| 1788548499 | 35° C | 48% | 1009.9 hPa | 0 mm | - | 745 W/m² | - |
* Rain latest hour (hover to see other rain measurements)
** Current wind speed in m/s (hover to see current wind gust speed)